Time,TemperatureF,DewpointF,PressureIn,WindDirection,WindDirectionDegrees,WindSpeedMPH,WindSpeedGustMPH,Humidity,HourlyPrecipIn,Conditions,Clouds,dailyrainin,SoftwareType,DateUTC
2013-01-06 15:12:00,53.0,36.0,30.27,WSW,242,0.0,8.0,53,0.00,,,0.00,,2013-01-06 21:12:00,
2013-01-06 15:22:00,53.0,35.0,30.28,SW,225,0.0,4.0,51,0.00,,,0.00,,2013-01-06 21:22:00,
2013-01-06 15:33:00,52.0,32.0,30.28,WSW,243,2.0,5.0,47,0.00,,,0.00,,2013-01-06 21:33:00,
2013-01-06 15:42:00,52.0,32.0,30.28,WSW,243,2.0,5.0,47,0.00,,,0.00,,2013-01-06 21:42:00,
2013-01-06 15:53:00,51.0,34.0,30.29,ESE,116,1.0,3.0,52,0.00,,,0.00,,2013-01-06 21:53:00,
2013-01-06 16:02:00,51.0,35.0,30.29,SSW,211,2.0,6.0,54,0.00,,,0.00,,2013-01-06 22:02:00,
2013-01-06 16:12:00,51.0,35.0,30.29,SSW,211,2.0,6.0,54,0.00,,,0.00,,2013-01-06 22:12:00,
2013-01-06 16:22:00,50.0,35.0,30.30,SSW,210,1.0,3.0,56,0.00,,,0.00,,2013-01-06 22:22:00,
2013-01-06 16:33:00,49.0,34.0,30.31,South,170,1.0,4.0,55,0.00,,,0.00,,2013-01-06 22:33:00,
2013-01-06 16:43:00,49.0,34.0,30.31,South,170,1.0,4.0,55,0.00,,,0.00,,2013-01-06 22:43:00,
2013-01-06 16:53:00,47.0,33.0,30.32,South,171,0.0,3.0,57,0.00,,,0.00,,2013-01-06 22:53:00,
2013-01-06 17:02:00,46.0,33.0,30.32,SSE,165,0.0,3.0,60,0.00,,,0.00,,2013-01-06 23:02:00,
2013-01-06 17:12:00,46.0,33.0,30.32,SSE,165,0.0,3.0,60,0.00,,,0.00,,2013-01-06 23:12:00,
2013-01-06 17:22:00,45.0,33.0,30.32,SW,233,0.0,2.0,63,0.00,,,0.00,,2013-01-06 23:22:00,
2013-01-06 17:33:00,44.0,33.0,30.33,SE,124,0.0,2.0,66,0.00,,,0.00,,2013-01-06 23:33:00,
2013-01-06 17:42:00,44.0,33.0,30.33,SE,124,0.0,2.0,66,0.00,,,0.00,,2013-01-06 23:42:00,
2013-01-06 17:53:00,43.0,32.0,30.34,ESE,115,0.0,1.0,66,0.00,,,0.00,,2013-01-06 23:53:00,
2013-01-06 18:02:00,43.0,33.0,30.34,ESE,115,0.0,1.0,68,0.00,,,0.00,,2013-01-07 00:02:00,
2013-01-06 18:12:00,43.0,33.0,30.34,ESE,115,0.0,1.0,68,0.00,,,0.00,,2013-01-07 00:12:00,
2013-01-06 18:23:00,42.0,33.0,30.35,SW,215,0.0,1.0,69,0.00,,,0.00,,2013-01-07 00:23:00,
2013-01-06 18:32:00,41.0,32.0,30.35,SSW,212,0.0,0.0,71,0.00,,,0.00,,2013-01-07 00:32:00,
2013-01-06 18:42:00,41.0,32.0,30.35,SSW,212,0.0,0.0,71,0.00,,,0.00,,2013-01-07 00:42:00,
2013-01-06 18:53:00,40.0,32.0,30.36,SSW,210,0.0,0.0,73,0.00,,,0.00,,2013-01-07 00:53:00,
2013-01-06 19:02:00,40.0,32.0,30.36,SSW,212,0.0,1.0,74,0.00,,,0.00,,2013-01-07 01:02:00,
2013-01-06 19:12:00,40.0,32.0,30.36,SSW,212,0.0,1.0,74,0.00,,,0.00,,2013-01-07 01:12:00,
2013-01-06 19:23:00,39.0,32.0,30.37,SSW,204,0.0,0.0,75,0.00,,,0.00,,2013-01-07 01:23:00,
2013-01-06 19:32:00,39.0,32.0,30.37,SSE,158,0.0,1.0,76,0.00,,,0.00,,2013-01-07 01:32:00,
2013-01-06 19:42:00,39.0,32.0,30.37,SSE,158,0.0,1.0,76,0.00,,,0.00,,2013-01-07 01:42:00,
2013-01-06 19:53:00,38.0,31.0,30.38,SSE,158,0.0,0.0,77,0.00,,,0.00,,2013-01-07 01:53:00,
2013-01-06 20:02:00,38.0,32.0,30.38,East,81,0.0,1.0,78,0.00,,,0.00,,2013-01-07 02:02:00,
2013-01-06 20:12:00,38.0,32.0,30.38,East,81,0.0,1.0,78,0.00,,,0.00,,2013-01-07 02:12:00,
2013-01-06 20:22:00,38.0,32.0,30.38,East,82,0.0,1.0,78,0.00,,,0.00,,2013-01-07 02:22:00,
2013-01-06 20:32:00,37.0,31.0,30.38,East,82,0.0,1.0,79,0.00,,,0.00,,2013-01-07 02:32:00,
2013-01-06 20:42:00,37.0,31.0,30.38,East,82,0.0,1.0,79,0.00,,,0.00,,2013-01-07 02:42:00,
2013-01-06 20:53:00,37.0,31.0,30.39,East,82,0.0,1.0,79,0.00,,,0.00,,2013-01-07 02:53:00,
2013-01-06 21:02:00,36.0,31.0,30.39,East,81,0.0,0.0,81,0.00,,,0.00,,2013-01-07 03:02:00,
2013-01-06 21:12:00,36.0,31.0,30.39,East,81,0.0,0.0,81,0.00,,,0.00,,2013-01-07 03:12:00,
2013-01-06 21:22:00,36.0,30.0,30.40,East,81,0.0,1.0,80,0.00,,,0.00,,2013-01-07 03:22:00,
2013-01-06 21:32:00,35.0,30.0,30.40,East,81,0.0,0.0,81,0.00,,,0.00,,2013-01-07 03:32:00,
2013-01-06 21:42:00,35.0,30.0,30.40,East,81,0.0,0.0,81,0.00,,,0.00,,2013-01-07 03:42:00,
2013-01-06 21:53:00,34.0,29.0,30.39,East,82,0.0,0.0,83,0.00,,,0.00,,2013-01-07 03:53:00,
2013-01-06 22:02:00,34.0,30.0,30.39,East,82,0.0,0.0,85,0.00,,,0.00,,2013-01-07 04:02:00,
2013-01-06 22:12:00,34.0,30.0,30.39,East,82,0.0,0.0,85,0.00,,,0.00,,2013-01-07 04:12:00,
2013-01-06 22:22:00,34.0,30.0,30.40,East,82,0.0,1.0,85,0.00,,,0.00,,2013-01-07 04:22:00,
2013-01-06 22:32:00,33.0,29.0,30.40,East,81,0.0,0.0,85,0.00,,,0.00,,2013-01-07 04:32:00,
2013-01-06 22:42:00,33.0,29.0,30.40,East,81,0.0,0.0,85,0.00,,,0.00,,2013-01-07 04:42:00,
2013-01-06 22:52:00,32.0,29.0,30.40,East,82,0.0,0.0,87,0.00,,,0.00,,2013-01-07 04:52:00,
2013-01-06 23:02:00,31.0,28.0,30.40,East,81,0.0,0.0,88,0.00,,,0.00,,2013-01-07 05:02:00,
2013-01-06 23:12:00,31.0,28.0,30.40,East,81,0.0,0.0,88,0.00,,,0.00,,2013-01-07 05:12:00,
2013-01-06 23:22:00,30.0,27.0,30.40,East,82,0.0,0.0,89,0.00,,,0.00,,2013-01-07 05:22:00,
2013-01-06 23:33:00,29.0,26.0,30.41,East,81,0.0,0.0,89,0.00,,,0.00,,2013-01-07 05:33:00,
2013-01-06 23:42:00,29.0,26.0,30.41,East,81,0.0,0.0,89,0.00,,,0.00,,2013-01-07 05:42:00,
2013-01-06 23:53:00,29.0,26.0,30.41,East,80,0.0,0.0,90,0.00,,,0.00,,2013-01-07 05:53:00,